Weather History for Fayetteville, AR

Change the Weather History Date:

Tuesday, June 18, 2013

  Actual Average Record
Temperature  
Mean Temperature 74 °F 74 °F  
Max Temperature 84 °F 84 °F 98 °F (1953)
Min Temperature 63 °F 63 °F 49 °F (1999)
Cooling Degree Days 9 9  
Month to date cooling degree days 128 123  
Year to date cooling degree days 264 236  
Since 1 June cooling degree days 128 123  
Growing Degree Days 22 (Base 50)    
Moisture  
Dew Point 64 °F    
Average Humidity 76    
Maximum Humidity 100    
Minimum Humidity 51    
Precipitation  
Precipitation 0.00 in 0.16 in 0.13 in (1958)
Month to date precipitation 1.36 3.12  
Year to date precipitation 25.46 23.33  
Sea Level Pressure  
Sea Level Pressure 29.99 in    
Wind  
Wind Speed 2 mph (NE)    
Max Wind Speed 9 mph    
Max Gust Speed 17 mph    
Visibility 7 miles    
Events Fog    
T = Trace of Precipitation, MM = Missing Value Source: NWS Daily Summary

Daily Weather History Graph

Daily Weather History Graph

Search for Another Location

Airport:

Trip Planner

Search our weather history database for the weather conditions in past years. The results will help you decide how hot, cold, wet, or windy it might be!

Date:

Astronomy

Jun. 18, 2013 Rise Set
Actual Time 5:59 AM CDT 8:36 PM CDT
Civil Twilight 5:29 AM CDT 9:06 PM CDT
Nautical Twilight 4:51 AM CDT 9:44 PM CDT
Astronomical Twilight 4:09 AM CDT 10:25 PM CDT
Moon 3:28 PM CDT 2:00 AM CDT
Length of Visible Light 15h 36m
Length of Day
14h 36m
Waxing Gibbous, 71% of the Moon is Illuminated
Jun 18
Waxing Gibbous
Jun 23
Full
Jun 29
Last Quarter
Jul 8
New
Jul 15
First Quarter

Hourly Weather History & Observations

Time (CDT) Temp. Heat Index Dew Point Humidity Pressure Visibility Wind Dir Wind Speed Gust Speed Precip Events Conditions
12:12 AM 68.0 °F - 66.2 °F 94% 30.01 in 10.0 mi Calm Calm - N/A   Overcast
12:33 AM 68.0 °F - 66.2 °F 94% 30.01 in 10.0 mi Calm Calm - N/A   Overcast
12:53 AM 68.0 °F - 66.9 °F 96% 29.96 in 10.0 mi Calm Calm - N/A   Mostly Cloudy
1:07 AM 66.2 °F - 66.2 °F 100% 30.00 in 9.0 mi NNW 3.5 mph - N/A   Mostly Cloudy
1:20 AM 66.2 °F - 64.4 °F 94% 30.00 in 10.0 mi Calm Calm - N/A   Scattered Clouds
1:53 AM 66.0 °F - 64.9 °F 96% 29.95 in 9.0 mi NNE 3.5 mph - N/A   Clear
2:53 AM 64.0 °F - 64.0 °F 100% 29.94 in 7.0 mi Calm Calm - N/A   Partly Cloudy
3:13 AM 64.4 °F - 64.4 °F 100% 29.97 in 1.8 mi Calm Calm - N/A   Partly Cloudy
3:16 AM 64.4 °F - 62.6 °F 94% 29.96 in 0.8 mi Calm Calm - N/A   Mist
3:25 AM 62.6 °F - 62.6 °F 100% 29.97 in 1.5 mi Calm Calm - N/A   Partly Cloudy
3:34 AM 64.4 °F - 62.6 °F 94% 29.97 in 0.8 mi Calm Calm - N/A   Mist
3:47 AM 62.6 °F - 62.6 °F 100% 29.97 in 2.5 mi NNW 3.5 mph - N/A   Mostly Cloudy
3:53 AM 63.0 °F - 63.0 °F 100% 29.93 in 1.8 mi NNW 3.5 mph - N/A   Overcast
4:00 AM 62.6 °F - 62.6 °F 100% 29.97 in 3.0 mi NNW 5.8 mph - N/A   Overcast
4:11 AM 64.4 °F - 64.4 °F 100% 29.97 in 5.0 mi NNW 4.6 mph - N/A   Overcast
4:53 AM 64.9 °F - 64.9 °F 100% 29.95 in 5.0 mi Calm Calm - N/A   Overcast
5:14 AM 64.4 °F - 64.4 °F 100% 30.00 in 1.8 mi Calm Calm - N/A   Overcast
5:27 AM 64.4 °F - 64.4 °F 100% 30.01 in 2.5 mi Calm Calm - N/A   Overcast
5:41 AM 64.4 °F - 64.4 °F 100% 30.01 in 1.0 mi ENE 3.5 mph - N/A   Overcast
5:53 AM 64.0 °F - 64.0 °F 100% 29.97 in 0.5 mi ENE 3.5 mph - N/A Fog Fog
6:53 AM 64.9 °F - 64.9 °F 100% 29.98 in 0.5 mi ENE 4.6 mph - N/A Fog Fog
7:21 AM 64.4 °F - 64.4 °F 100% 30.01 in 2.0 mi North 3.5 mph - N/A   Overcast
7:53 AM 66.9 °F - 64.9 °F 93% 30.00 in 3.0 mi Calm Calm - N/A   Overcast
8:53 AM 69.1 °F - 66.0 °F 90% 30.01 in 10.0 mi East 4.6 mph - N/A   Overcast
9:53 AM 71.1 °F - 66.0 °F 84% 30.03 in 10.0 mi Calm Calm - N/A   Mostly Cloudy
10:00 AM 71.6 °F - 66.2 °F 83% 30.06 in 10.0 mi ESE 3.5 mph - N/A   Mostly Cloudy
10:23 AM 73.4 °F - 64.4 °F 73% 30.06 in 10.0 mi East 6.9 mph - N/A   Partly Cloudy
10:53 AM 75.0 °F - 64.9 °F 71% 30.02 in 10.0 mi Calm Calm - N/A   Clear
11:53 AM 78.1 °F - 64.0 °F 62% 30.01 in 10.0 mi ENE 4.6 mph - N/A   Clear
12:53 PM 80.1 °F 81.1 °F 61.0 °F 52% 30.02 in 10.0 mi NE 3.5 mph - N/A   Clear
1:53 PM 81.0 °F 81.9 °F 62.1 °F 52% 30.01 in 10.0 mi Calm Calm - N/A   Clear
2:53 PM 82.0 °F 83.1 °F 63.0 °F 52% 29.99 in 10.0 mi ENE 4.6 mph - N/A   Clear
3:53 PM 81.0 °F 82.5 °F 64.0 °F 56% 29.98 in 10.0 mi Variable 4.6 mph - N/A   Clear
4:53 PM 82.0 °F 83.0 °F 62.1 °F 51% 29.96 in 10.0 mi NNE 3.5 mph - N/A   Clear
5:53 PM 82.9 °F 83.7 °F 62.1 °F 49% 29.95 in 10.0 mi Variable 3.5 mph - N/A   Clear
6:53 PM 82.0 °F 83.1 °F 63.0 °F 52% 29.95 in 10.0 mi Variable 3.5 mph - N/A   Clear
7:53 PM 79.0 °F - 64.9 °F 62% 29.97 in 10.0 mi Calm Calm - N/A   Scattered Clouds
8:53 PM 72.0 °F - 66.9 °F 84% 29.99 in 10.0 mi Calm Calm - N/A   Clear
9:53 PM 69.1 °F - 66.0 °F 90% 30.00 in 10.0 mi South 4.6 mph - N/A   Clear
10:53 PM 66.9 °F - 64.9 °F 93% 29.99 in 10.0 mi South 4.6 mph - N/A   Clear
11:53 PM 64.0 °F - 63.0 °F 96% 30.00 in 10.0 mi Calm Calm - N/A   Clear